Weather History for KSBN - July, 2012

Change the Weather History Date:

Friday, July 13, 2012

  Actual Average Record
Temperature  
Mean Temperature 84 °F 73 °F  
Max Temperature 95 °F 83 °F 106 °F (1936)
Min Temperature 72 °F 63 °F 49 °F (1940)
Degree Days  
Heating Degree Days 0 0  
Month to date heating degree days 0 0  
Since 1 June heating degree days 29 44  
Since 1 July heating degree days 0 0  
Cooling Degree Days 19 8  
Month to date cooling degree days 220 104  
Year to date cooling degree days 610 325  
Since 1 June cooling degree days 452 269  
Growing Degree Days 34 (Base 50)    
Moisture  
Dew Point 59 °F    
Average Humidity 46    
Maximum Humidity 64    
Minimum Humidity 28    
Precipitation  
Precipitation 0.00 in 0.13 in 2.94 in (1945)
Month to date precipitation T 1.61  
Year to date precipitation 12.84 19.12  
Snow  
Snow 0.00 in - - ()
Month to date snowfall 0.0  
Snow Depth 0.00 in    
Sea Level Pressure  
Sea Level Pressure 30.06 in    
Wind  
Wind Speed 8 mph (SE)    
Max Wind Speed 17 mph    
Max Gust Speed 24 mph    
Visibility 10 miles    
Events      
T = Trace of Precipitation, MM = Missing Value Source: NWS Daily Summary

Daily Weather History Graph

Daily Weather History Graph

Search for Another Location

Airport or City:

Trip Planner

Search our weather history database for the weather conditions in past years. The results will help you decide how hot, cold, wet, or windy it might be!

Date:

Astronomy

Jul. 13, 2012 Rise Set
Actual Time 6:22 AM EDT 9:19 PM EDT
Civil Twilight 5:49 AM EDT 9:52 PM EDT
Nautical Twilight 5:07 AM EDT 10:34 PM EDT
Astronomical Twilight 4:18 AM EDT 11:23 PM EDT
Moon 2:00 AM EDT (7/13) 4:47 PM EDT (7/13)
Length of Visible Light 16h 02m
Length of Day
14h 56m
Waning Crescent, 26% of the Moon is Illuminated
Jul 13
Waning Crescent
Jul 19
New
Jul 26
First Quarter
Aug 1
Full
Aug 9
Last Quarter

Hourly Weather History & Observations

Time (EDT) Temp. Heat Index Dew Point Humidity Pressure Visibility Wind Dir Wind Speed Gust Speed Precip Events Conditions
12:54 AM 78.1 °F - 52.0 °F 40% 30.07 in 10.0 mi East 4.6 mph - N/A   Mostly Cloudy
1:54 AM 78.1 °F - 54.0 °F 43% 30.08 in 10.0 mi ESE 8.1 mph - N/A   Mostly Cloudy
2:54 AM 75.9 °F - 57.0 °F 52% 30.08 in 10.0 mi ESE 6.9 mph - N/A   Mostly Cloudy
3:54 AM 73.9 °F - 57.9 °F 57% 30.07 in 10.0 mi ESE 6.9 mph - N/A   Clear
4:54 AM 73.0 °F - 59.0 °F 61% 30.07 in 10.0 mi SE 4.6 mph - N/A   Clear
5:54 AM 73.0 °F - 59.0 °F 61% 30.07 in 10.0 mi SSE 3.5 mph - N/A   Clear
6:54 AM 73.0 °F - 60.1 °F 64% 30.09 in 10.0 mi SSE 4.6 mph - N/A   Clear
7:54 AM 73.9 °F - 60.1 °F 62% 30.09 in 10.0 mi SSE 4.6 mph - N/A   Clear
8:54 AM 77.0 °F - 63.0 °F 62% 30.09 in 10.0 mi South 8.1 mph - N/A   Clear
9:54 AM 80.1 °F 81.7 °F 64.0 °F 58% 30.10 in 10.0 mi SSE 4.6 mph - N/A   Clear
10:54 AM 84.0 °F 85.8 °F 64.9 °F 53% 30.10 in 10.0 mi SW 8.1 mph - N/A   Clear
11:54 AM 87.1 °F 88.9 °F 64.9 °F 48% 30.10 in 10.0 mi South 5.8 mph - N/A   Clear
12:54 PM 91.0 °F 91.5 °F 62.1 °F 38% 30.09 in 10.0 mi SE 8.1 mph - N/A   Partly Cloudy
1:54 PM 91.0 °F 90.5 °F 60.1 °F 35% 30.08 in 10.0 mi SSE 13.8 mph - N/A   Scattered Clouds
2:54 PM 91.0 °F 90.2 °F 59.0 °F 34% 30.06 in 10.0 mi SE 11.5 mph - N/A   Scattered Clouds
3:54 PM 93.9 °F 92.2 °F 55.9 °F 28% 30.03 in 10.0 mi South 15.0 mph 20.7 mph N/A   Mostly Cloudy
4:54 PM 91.9 °F 90.3 °F 55.9 °F 30% 30.03 in 10.0 mi South 12.7 mph - N/A   Mostly Cloudy
5:54 PM 90.0 °F 88.6 °F 57.0 °F 33% 30.01 in 10.0 mi SSE 8.1 mph - N/A   Mostly Cloudy
6:54 PM 91.0 °F 90.0 °F 57.9 °F 33% 30.01 in 10.0 mi South 8.1 mph - N/A   Clear
7:54 PM 89.1 °F 88.0 °F 57.9 °F 35% 30.02 in 10.0 mi South 8.1 mph - N/A   Mostly Cloudy
8:54 PM 84.0 °F 84.4 °F 61.0 °F 46% 30.03 in 10.0 mi NE 6.9 mph - N/A   Scattered Clouds
9:54 PM 78.1 °F - 62.1 °F 58% 30.04 in 10.0 mi NW 5.8 mph - N/A   Clear
10:54 PM 75.9 °F - 63.0 °F 64% 30.04 in 10.0 mi North 6.9 mph - N/A   Clear
11:54 PM 75.0 °F - 63.0 °F 66% 30.05 in 10.0 mi ESE 3.5 mph - N/A   Clear